Weather History for LTCC - October, 2011

Change the Weather History Date:

Wednesday, October 26, 2011

  Actual Average Record
Temperature  
Mean Temperature 60 °F -  
Max Temperature 73 °F 63 °F 80 °F (2007)
Min Temperature 46 °F 41 °F 41 °F (2001)
Degree Days  
Heating Degree Days 6    
Growing Degree Days 10 (Base 50)    
Moisture  
Dew Point 32 °F    
Average Humidity 36    
Maximum Humidity 54    
Minimum Humidity 12    
Precipitation  
Precipitation 0.00 in 0.07 in - ()
Sea Level Pressure  
Sea Level Pressure 29.88 in    
Wind  
Wind Speed 5 mph ()    
Max Wind Speed 9 mph    
Max Gust Speed -    
Visibility 6.4 miles    
Events      
Averages and records for this station are not official NWS values.
T = Trace of Precipitation, MM = Missing Value Source: Averaged Metar Reports

Daily Weather History Graph

Daily Weather History Graph

Search for Another Location

Airport or City:

Trip Planner

Search our weather history database for the weather conditions in past years. The results will help you decide how hot, cold, wet, or windy it might be!

Date:

Astronomy

Oct. 26, 2011 Rise Set
Actual Time 6:37 AM EEST 5:28 PM EEST
Civil Twilight 6:11 AM EEST 5:54 PM EEST
Nautical Twilight 5:40 AM EEST 6:25 PM EEST
Astronomical Twilight 5:09 AM EEST 6:56 PM EEST
Moon 5:58 AM EEST (10/26) 4:55 PM EEST (10/26)
Length of Visible Light 11h 43m
Length of Day
10h 50m
Waning Crescent, 0% of the Moon is Illuminated
Oct 26
Waning Crescent
Oct 26
New
Nov 2
First Quarter
Nov 10
Full
Nov 18
Last Quarter

Hourly Weather History & Observations

Time (EEST) Temp. Windchill Dew Point Humidity Pressure Visibility Wind Dir Wind Speed Gust Speed Precip Events Conditions
12:20 AM 51.8 °F - 30.2 °F 44% 29.92 in - West 4.6 mph - N/A   Clear
12:50 AM 51.8 °F - 30.2 °F 44% 29.92 in - WNW 4.6 mph - N/A   Clear
1:20 AM 51.8 °F - 30.2 °F 44% 29.92 in - West 4.6 mph - N/A   Clear
1:50 AM 51.8 °F - 30.2 °F 44% 29.92 in - WNW 4.6 mph - N/A   Clear
2:20 AM 51.8 °F - 32.0 °F 47% 29.92 in - WNW 3.5 mph - N/A   Clear
2:50 AM 50.0 °F - 32.0 °F 50% 29.89 in - Variable 2.3 mph - N/A   Clear
3:00 AM 50 °F - 31 °F 35% 29.86 in 6 mi NNW 2.3 mph - -  
3:20 AM 50.0 °F - 32.0 °F 50% 29.89 in - Calm Calm - N/A   Clear
3:50 AM 48.2 °F - 32.0 °F 54% 29.89 in - West 2.3 mph - N/A   Clear
4:20 AM 46.4 °F 44.3 °F 30.2 °F 53% 29.89 in - West 4.6 mph - N/A   Clear
4:50 AM 48.2 °F - 30.2 °F 50% 29.89 in - West 6.9 mph - N/A   Clear
5:20 AM 48.2 °F - 30.2 °F 50% 29.89 in - West 5.8 mph - N/A   Clear
5:50 AM 48.2 °F - 30.2 °F 50% 29.92 in - West 4.6 mph - N/A   Clear
6:20 AM 48.2 °F - 30.2 °F 50% 29.89 in - West 6.9 mph - N/A   Clear
6:50 AM 48.2 °F - 32.0 °F 54% 29.92 in - West 8.1 mph - N/A   Clear
7:20 AM 50.0 °F - 32.0 °F 50% 29.92 in - West 5.8 mph - N/A   Clear
7:50 AM 53.6 °F - 33.8 °F 47% 29.92 in - West 4.6 mph - N/A   Clear
8:20 AM 57.2 °F - 35.6 °F 44% 29.92 in - West 4.6 mph - N/A   Clear
8:50 AM 60.8 °F - 35.6 °F 39% 29.92 in - West 6.9 mph - N/A   Clear
9:00 AM 60 °F - 35 °F 28% 29.90 in 6 mi West 6.9 mph - -   Scattered Clouds
9:20 AM 62.6 °F - 35.6 °F 37% 29.92 in - NW 9.2 mph - N/A   Clear
9:50 AM 64.4 °F - 35.6 °F 34% 29.92 in - NW 9.2 mph - N/A   Clear
10:20 AM 66.2 °F - 35.6 °F 32% 29.92 in - NNW 8.1 mph - N/A   Clear
10:50 AM 68.0 °F - 35.6 °F 30% 29.89 in - North 8.1 mph - N/A   Clear
11:20 AM 68.0 °F - 33.8 °F 28% 29.89 in - North 8.1 mph - N/A   Clear
11:50 AM 71.6 °F - 35.6 °F 27% 29.89 in - NNW 9.2 mph - N/A   Clear
12:20 PM 71.6 °F - 33.8 °F 25% 29.89 in - North 8.1 mph - N/A   Clear
12:50 PM 71.6 °F - 32.0 °F 23% 29.86 in - NW 9.2 mph - N/A   Clear
1:20 PM 71.6 °F - 32.0 °F 23% 29.86 in - NNW 6.9 mph - N/A   Clear
1:50 PM 71.6 °F - 32.0 °F 23% 29.86 in 6.2 mi NNW 4.6 mph - N/A   Mostly Cloudy
2:20 PM 73.4 °F - 30.2 °F 20% 29.83 in 6.2 mi NW 5.8 mph - N/A   Mostly Cloudy
2:50 PM 71.6 °F - 32.0 °F 23% 29.83 in 6.2 mi North 6.9 mph - N/A   Mostly Cloudy
3:00 PM 72 °F - 30 °F 12% 29.79 in 6 mi North 6.9 mph - -   Scattered Clouds
3:20 PM 71.6 °F - 30.2 °F 22% 29.83 in 6.2 mi Variable 3.5 mph - N/A   Mostly Cloudy
3:50 PM 71.6 °F - 30.2 °F 22% 29.83 in 6.2 mi Variable 2.3 mph - N/A   Mostly Cloudy
4:20 PM 71.6 °F - 30.2 °F 22% 29.83 in 6.2 mi NNE 4.6 mph - N/A   Mostly Cloudy
4:50 PM 69.8 °F - 32.0 °F 25% 29.83 in 6.2 mi NNE 2.3 mph - N/A   Mostly Cloudy
5:20 PM 68.0 °F - 32.0 °F 26% 29.83 in 6.2 mi NE 2.3 mph - N/A   Mostly Cloudy
5:50 PM 66.2 °F - 32.0 °F 28% 29.83 in 6.2 mi NNE 2.3 mph - N/A   Mostly Cloudy
6:20 PM 64.4 °F - 32.0 °F 30% 29.86 in 6.2 mi NNW 8.1 mph - N/A   Mostly Cloudy
6:50 PM 62.6 °F - 30.2 °F 30% 29.86 in 6.2 mi NNW 6.9 mph - N/A   Mostly Cloudy
7:20 PM 60.8 °F - 32.0 °F 34% 29.86 in 6.2 mi Variable 1.2 mph - N/A   Mostly Cloudy
7:50 PM 60.8 °F - 30.2 °F 31% 29.86 in 6.2 mi SSW 4.6 mph - N/A   Scattered Clouds
8:20 PM 59.0 °F - 30.2 °F 34% 29.86 in 6.2 mi WSW 8.1 mph - N/A   Scattered Clouds
8:50 PM 59.0 °F - 32.0 °F 36% 29.86 in 6.2 mi West 9.2 mph - N/A   Scattered Clouds
9:00 PM 58 °F - 31 °F 24% 29.83 in 12 mi West 9.2 mph - -   Scattered Clouds
9:20 PM 57.2 °F - 32.0 °F 38% 29.89 in 6.2 mi West 9.2 mph - N/A   Scattered Clouds
9:50 PM 57.2 °F - 30.2 °F 36% 29.89 in 6.2 mi West 6.9 mph - N/A   Scattered Clouds
10:20 PM 57.2 °F - 32.0 °F 38% 29.89 in 6.2 mi WNW 5.8 mph - N/A   Mostly Cloudy
10:50 PM 59.0 °F - 33.8 °F 39% 29.89 in 6.2 mi WNW 9.2 mph - N/A   Mostly Cloudy
11:20 PM 57.2 °F - 33.8 °F 41% 29.89 in 6.2 mi WSW 3.5 mph - N/A   Mostly Cloudy
11:50 PM 57.2 °F - 33.8 °F 41% 29.89 in 6.2 mi West 8.1 mph - N/A   Mostly Cloudy